Погода в Белоярске

Россия / Ямало-Ненецкий автономный округ     66°52′05″N   68°08′34″E
темп.,
°C
ветер,
м/с
пор.,
м/с
влажн.,
%
обл.,
%
осадки,
мм/ч
давл.,
гПа
погр.,
м
16 июня, ср
ср1623:00+7ссв7117199 0.0 1009199
02:00+5св587240 0.0 1010127
05:00+6ссв34630 0.0 1011134
08:00+7с235550 0.0 1011285
11:00+10ююз225170 0.0 1010475
14:00+14юз464768 0.0 1008627
17:00+16юз673974 0.0 1006681
20:00+16ююз57415 0.0 1005612
17 июня, чт
чт1723:00+12ю67551 0.0 100365
02:00+11ю8136142 0.0 1001148
05:00+11ю61057100 0.0 999166
08:00+11ю696095 0.0 996164
11:00+4ссв152192100 1.3 998457
14:00+4с111683100 2.3 1004417
17:00+6с8126686 2.4 1006672
20:00+7ссз7105874 0.0 1008710
18 июня, пт
пт1823:00+4ссв347455 0.0 100957
02:00+3зсз23772 0.0 101030
05:00+5зсз69671 0.0 1011375
08:00+7зсз785431 0.0 1011728
11:00+9сз784697 0.0 10101013
14:00+9зсз564799 0.0 1011886
17:00+10зсз784695 0.0 1011902
20:00+9сз454749 0.0 1011785
19 июня, сб
сб1923:00+8ююз335397 0.0 101014
02:00+7юз4656100 0.0 1010120
05:00+7зсз57735 0.0 1011256
08:00+9зсз34568 0.0 1011636
11:00+11з355093 0.0 1011944
14:00+12зюз344489 0.0 10091053
17:00+13з5638100 0.0 1009853
20:00+12з134383 0.0 1007679
20 июня, вс
вс2023:00+10ю3359100 0.1 100742
02:00+6всв7894100 3.1 1005144
05:00+6св91498100 11.3 1004314
08:00+5с131892100 4.3 1008406
11:00+5с121775100 5.1 1012498
14:00+9с912535 0.1 1014740
17:00+9ссв795229 0.1 1015766
20:00+9ссв465693 0.0 1016500